When you browse on this site, cookies collect data to enhance your experience and personalize the content and advertising you see.
Visit our Privacy Policy to learn more. By continuing to use the site, you agree to this use of cookies and data.
  • In Romania
  • List of Countries
  • For 7 days
  • Water Temperature
  • Satellite Maps
  • Weather Map
  • Weather Widgets
  • user-avatar
    Login

    Hourly Weather Ischgl

    Today, 20 June, Thursday

    Time Temperature Precipitation Wind Pressure Humidity
    00:00 +7°C° 0.4 mm 1 mps 574 mmHg 84%
    01:00 +6°C° 0 mm 2 mps 574 mmHg 83%
    02:00 +7°C° 0.6 mm 1 mps 574 mmHg 84%
    03:00 +7°C° 0.6 mm 1 mps 574 mmHg 85%
    04:00 +6°C° 0.6 mm 0 mps 574 mmHg 87%
    05:00 +7°C° 0.2 mm 0 mps 574 mmHg 84%
    06:00 +8°C° 0.2 mm 0 mps 575 mmHg 82%
    07:00 +9°C° 0.2 mm 0 mps 576 mmHg 79%
    08:00 +9°C° 1 mm 0 mps 576 mmHg 77%
    09:00 +11°C° 1 mm 1 mps 576 mmHg 75%
    10:00 +12°C° 1 mm 1 mps 576 mmHg 72%
    11:00 +12°C° 1.6 mm 1 mps 576 mmHg 74%
    12:00 +12°C° 1.6 mm 1 mps 576 mmHg 75%
    13:00 +12°C° 1.6 mm 2 mps 576 mmHg 77%
    14:00 +12°C° 1.2 mm 1 mps 576 mmHg 77%
    15:00 +12°C° 1.2 mm 1 mps 576 mmHg 77%
    16:00 +12°C° 1.2 mm 1 mps 576 mmHg 78%
    17:00 +11°C° 1 mm 1 mps 576 mmHg 81%
    18:00 +9°C° 1 mm 2 mps 576 mmHg 85%
    19:00 +9°C° 1 mm 2 mps 576 mmHg 89%
    20:00 +8°C° 0.5 mm 2 mps 576 mmHg 90%
    21:00 +9°C° 0.5 mm 1 mps 576 mmHg 92%
    22:00 +8°C° 0.5 mm 1 mps 575 mmHg 93%
    23:00 +8°C° 0.1 mm 1 mps 575 mmHg 93%

    Tomorrow, 21 June, Friday

    Time Temperature Precipitation Wind Pressure Humidity
    00:00 +7°C° 0.1 mm 1 mps 575 mmHg 93%
    01:00 +7°C° 0.1 mm 1 mps 575 mmHg 92%
    02:00 +7°C° 0 mm 1 mps 575 mmHg 91%
    03:00 +6°C° 0 mm 0 mps 575 mmHg 90%
    04:00 +6°C° 0 mm 0 mps 575 mmHg 89%
    05:00 +7°C° 0 mm 0 mps 576 mmHg 86%
    06:00 +7°C° 0 mm 0 mps 576 mmHg 83%
    07:00 +8°C° 0 mm 0 mps 577 mmHg 79%
    08:00 +9°C° 0.1 mm 1 mps 577 mmHg 77%
    09:00 +9°C° 0.1 mm 1 mps 577 mmHg 74%
    10:00 +10°C° 0.1 mm 1 mps 577 mmHg 72%
    11:00 +11°C° 0.1 mm 1 mps 577 mmHg 68%
    12:00 +12°C° 0.1 mm 1 mps 578 mmHg 64%
    13:00 +13°C° 0.1 mm 1 mps 579 mmHg 60%
    14:00 +12°C° 1 mm 1 mps 578 mmHg 67%
    15:00 +12°C° 1 mm 1 mps 578 mmHg 74%
    16:00 +11°C° 1 mm 1 mps 577 mmHg 81%
    17:00 +10°C° 2.8 mm 1 mps 577 mmHg 86%
    18:00 +9°C° 2.8 mm 1 mps 576 mmHg 90%
    19:00 +9°C° 2.8 mm 1 mps 576 mmHg 95%
    20:00 +8°C° 0.9 mm 1 mps 576 mmHg 95%
    21:00 +8°C° 0.9 mm 1 mps 576 mmHg 95%
    22:00 +7°C° 0.9 mm 1 mps 576 mmHg 96%
    23:00 +7°C° 0.3 mm 1 mps 576 mmHg 96%

    Day after tomorrow, 22 June, Saturday

    Time Temperature Precipitation Wind Pressure Humidity
    00:00 +7°C° 0.3 mm 1 mps 576 mmHg 96%
    01:00 +7°C° 0.3 mm 1 mps 575 mmHg 96%
    02:00 +6°C° 0.1 mm 1 mps 575 mmHg 96%
    03:00 +6°C° 0.1 mm 1 mps 575 mmHg 96%
    04:00 +6°C° 0.1 mm 1 mps 574 mmHg 95%
    05:00 +6°C° 0.8 mm 1 mps 575 mmHg 95%
    06:00 +7°C° 0.8 mm 1 mps 575 mmHg 94%
    07:00 +7°C° 0.8 mm 1 mps 575 mmHg 93%
    08:00 +8°C° 0.5 mm 1 mps 576 mmHg 90%
    09:00 +8°C° 0.5 mm 1 mps 576 mmHg 87%
    10:00 +9°C° 0.5 mm 1 mps 576 mmHg 84%
    11:00 +9°C° 0.5 mm 1 mps 576 mmHg 85%
    12:00 +9°C° 0.5 mm 1 mps 576 mmHg 85%
    13:00 +9°C° 0.5 mm 1 mps 576 mmHg 85%
    14:00 +9°C° 0.9 mm 1 mps 576 mmHg 85%
    15:00 +10°C° 0.9 mm 1 mps 576 mmHg 85%
    16:00 +10°C° 0.9 mm 1 mps 576 mmHg 85%
    17:00 +9°C° 0.7 mm 1 mps 576 mmHg 87%
    18:00 +9°C° 0.7 mm 1 mps 576 mmHg 89%
    19:00 +8°C° 0.7 mm 1 mps 576 mmHg 91%
    20:00 +8°C° 0.2 mm 1 mps 575 mmHg 92%
    21:00 +7°C° 0.2 mm 1 mps 575 mmHg 93%
    22:00 +6°C° 0.2 mm 1 mps 575 mmHg 94%
    23:00 +6°C° 0 mm 1 mps 575 mmHg 94%

    23 June, Sunday

    Time Temperature Precipitation Wind Pressure Humidity
    00:00 +5°C° 0 mm 1 mps 574 mmHg 95%
    01:00 +4°C° 0 mm 1 mps 574 mmHg 95%
    02:00 +4°C° 0 mm 1 mps 574 mmHg 95%
    03:00 +4°C° 0 mm 1 mps 574 mmHg 96%
    04:00 +3°C° 0 mm 1 mps 574 mmHg 96%
    05:00 +5°C° 0 mm 1 mps 575 mmHg 92%
    06:00 +6°C° 0 mm 1 mps 576 mmHg 88%
    07:00 +8°C° 0 mm 1 mps 576 mmHg 84%
    08:00 +10°C° 0 mm 1 mps 577 mmHg 77%
    09:00 +11°C° 0 mm 1 mps 578 mmHg 69%
    10:00 +13°C° 0 mm 1 mps 579 mmHg 62%
    11:00 +14°C° 0 mm 1 mps 580 mmHg 58%
    12:00 +15°C° 0 mm 1 mps 580 mmHg 54%
    13:00 +18°C° 0 mm 1 mps 581 mmHg 49%
    14:00 +18°C° 0 mm 1 mps 581 mmHg 50%
    15:00 +17°C° 0 mm 2 mps 581 mmHg 51%
    16:00 +17°C° 0 mm 2 mps 581 mmHg 52%
    17:00 +16°C° 0 mm 2 mps 581 mmHg 60%
    18:00 +15°C° 0 mm 2 mps 580 mmHg 68%
    19:00 +14°C° 0 mm 2 mps 580 mmHg 76%
    20:00 +12°C° 0 mm 1 mps 579 mmHg 82%
    21:00 +10°C° 0 mm 1 mps 579 mmHg 89%
    22:00 +7°C° 0 mm 0 mps 578 mmHg 96%
    23:00 +7°C° 0 mm 1 mps 578 mmHg 96%

    24 June, Monday

    Time Temperature Precipitation Wind Pressure Humidity
    00:00 +7°C° 0 mm 1 mps 578 mmHg 95%
    01:00 +7°C° 0 mm 1 mps 578 mmHg 94%
    02:00 +7°C° 0 mm 1 mps 578 mmHg 93%
    03:00 +6°C° 0 mm 1 mps 577 mmHg 91%
    04:00 +6°C° 0 mm 1 mps 577 mmHg 90%
    05:00 +8°C° 0 mm 0 mps 579 mmHg 81%
    06:00 +10°C° 0 mm 0 mps 580 mmHg 72%
    07:00 +12°C° 0 mm 0 mps 582 mmHg 63%
    08:00 +14°C° 0 mm 0 mps 582 mmHg 53%
    09:00 +18°C° 0 mm 1 mps 583 mmHg 43%
    10:00 +20°C° 0 mm 1 mps 584 mmHg 33%
    11:00 +21°C° 0 mm 1 mps 584 mmHg 31%
    12:00 +21°C° 0 mm 1 mps 585 mmHg 29%
    13:00 +21°C° 0 mm 2 mps 585 mmHg 27%
    14:00 +21°C° 0 mm 2 mps 585 mmHg 28%
    15:00 +21°C° 0 mm 2 mps 585 mmHg 29%
    16:00 +21°C° 0 mm 2 mps 585 mmHg 29%
    17:00 +20°C° 0 mm 2 mps 584 mmHg 40%
    18:00 +20°C° 0 mm 1 mps 584 mmHg 50%
    19:00 +18°C° 0 mm 1 mps 584 mmHg 60%
    20:00 +15°C° 0 mm 1 mps 583 mmHg 67%
    21:00 +13°C° 0 mm 1 mps 582 mmHg 74%
    22:00 +9°C° 0 mm 0 mps 581 mmHg 81%
    23:00 +9°C° 0 mm 0 mps 581 mmHg 79%

    25 June, Tuesday

    Time Temperature Precipitation Wind Pressure Humidity
    00:00 +10°C° 0 mm 1 mps 581 mmHg 77%
    01:00 +10°C° 0 mm 1 mps 581 mmHg 75%
    02:00 +9°C° 0 mm 1 mps 581 mmHg 72%
    03:00 +9°C° 0 mm 1 mps 580 mmHg 70%
    04:00 +9°C° 0 mm 1 mps 580 mmHg 67%
    05:00 +12°C° 0 mm 1 mps 582 mmHg 58%
    06:00 +14°C° 0 mm 0 mps 583 mmHg 48%
    07:00 +17°C° 0 mm 0 mps 585 mmHg 39%
    08:00 +20°C° 0 mm 1 mps 586 mmHg 34%
    09:00 +22°C° 0 mm 1 mps 586 mmHg 29%
    10:00 +24°C° 0 mm 1 mps 587 mmHg 24%
    11:00 +24°C° 0 mm 2 mps 587 mmHg 23%
    12:00 +25°C° 0 mm 2 mps 588 mmHg 22%
    13:00 +25°C° 0 mm 3 mps 588 mmHg 22%
    14:00 +25°C° 0 mm 3 mps 588 mmHg 23%
    15:00 +25°C° 0 mm 3 mps 588 mmHg 24%
    16:00 +25°C° 0 mm 3 mps 588 mmHg 26%
    17:00 +22°C° 0 mm 3 mps 587 mmHg 34%
    18:00 +21°C° 0 mm 2 mps 587 mmHg 43%
    19:00 +20°C° 0 mm 1 mps 586 mmHg 51%
    20:00 +18°C° 0 mm 1 mps 585 mmHg 56%
    21:00 +14°C° 0 mm 1 mps 584 mmHg 61%
    22:00 +12°C° 0 mm 1 mps 583 mmHg 65%
    23:00 +11°C° 0 mm 1 mps 583 mmHg 64%
    Show more